{"data":{"norad_id":55340,"intl_designator":"2023-013K","name":"STARLINK-5675","alt_names":[],"object_type":"PAYLOAD","status":"ACTIVE","operator":null,"country":"US","launch_date":"2023-01-26","launch_site_code":"AFETR","launch_vehicle":null,"mission":null,"orbit_class":"UNKNOWN","rcs_meters":null,"size_class":null,"mass_kg":null,"dimensions":null,"purposes":["comms"],"wikipedia_slug":null,"has_3d_model":false,"image_url":null,"decayed_at":null,"tle_current":{"epoch":"2026-09-20T12:35:25.579968Z","epoch_age_seconds":94538,"freshness":"FRESH","line1":"1 55340U 23013K   26263.52460162  .00000466  00000+0  26477-4 0  9996","line2":"2 55340  43.0041 282.8525 0001767 278.1572  81.9079 15.27577649201477","mean_motion":15.27577649,"eccentricity":0.0001767,"inclination_deg":43.0041,"raan_deg":282.8525,"arg_perigee_deg":278.1572,"mean_anomaly_deg":81.9079,"bstar":2.6477e-5,"rev_number":20147,"period_min":94.266893793757,"perigee_km":481.84376296135,"apogee_km":484.26850861554,"semimajor_km":6861.1931357884,"source":"CELESTRAK","updated_at":"2026-09-21T09:00:33.179849Z"}}}